Time,TemperatureF,DewpointF,PressureIn,WindDirection,WindDirectionDegrees,WindSpeedMPH,WindSpeedGustMPH,Humidity,HourlyPrecipIn,Conditions,Clouds,dailyrainin,SoftwareType,DateUTC
2013-05-07 00:00:00,58.6,56.9,30.11,ESE,103,4.4,6.0,94,0.00,OVC,,0.00,WeatherDisplay:10.37,2013-05-07 04:00:00,
2013-05-07 00:01:00,58.6,56.9,30.11,ESE,103,4.5,5.8,94,0.00,OVC,,0.00,WeatherDisplay:10.37,2013-05-07 04:01:00,
2013-05-07 00:06:00,58.6,56.9,30.11,East,98,5.0,10.0,94,0.00,OVC,,0.00,WeatherDisplay:10.37,2013-05-07 04:06:00,
2013-05-07 00:11:00,58.6,56.9,30.11,East,97,4.2,5.8,94,0.00,OVC,,0.00,WeatherDisplay:10.37,2013-05-07 04:11:00,
2013-05-07 00:16:00,58.4,56.7,30.11,East,96,3.4,5.0,94,0.00,OVC,,0.00,WeatherDisplay:10.37,2013-05-07 04:16:00,
2013-05-07 00:21:00,58.4,56.7,30.11,East,101,4.0,5.8,94,0.00,OVC,,0.00,WeatherDisplay:10.37,2013-05-07 04:21:00,
2013-05-07 00:26:00,58.4,57.0,30.11,East,95,5.0,6.0,95,0.00,OVC,,0.00,WeatherDisplay:10.37,2013-05-07 04:26:00,
2013-05-07 00:31:00,58.3,56.9,30.10,ESE,102,5.0,5.8,95,0.00,OVC,,0.00,WeatherDisplay:10.37,2013-05-07 04:31:00,
2013-05-07 00:36:00,58.3,56.9,30.10,ESE,111,4.7,5.0,95,0.00,OVC,,0.00,WeatherDisplay:10.37,2013-05-07 04:36:00,
2013-05-07 00:41:00,58.3,56.9,30.10,ESE,106,4.7,6.0,95,0.00,OVC,,0.00,WeatherDisplay:10.37,2013-05-07 04:41:00,
2013-05-07 00:46:00,58.4,57.0,30.10,East,100,4.4,5.8,95,0.00,OVC,,0.00,WeatherDisplay:10.37,2013-05-07 04:46:00,
2013-05-07 00:51:00,58.3,56.9,30.10,ESE,102,4.2,5.8,95,0.00,OVC,,0.00,WeatherDisplay:10.37,2013-05-07 04:51:00,
2013-05-07 00:56:00,58.3,56.9,30.10,East,97,4.0,5.8,95,0.00,OVC,,0.00,WeatherDisplay:10.37,2013-05-07 04:56:00,
2013-05-07 01:01:00,58.3,56.9,30.10,ESE,102,4.3,5.8,95,0.00,OVC,,0.00,WeatherDisplay:10.37,2013-05-07 05:01:00,
2013-05-07 01:06:00,58.3,56.9,30.09,ESE,106,4.2,5.8,95,0.00,OVC,,0.00,WeatherDisplay:10.37,2013-05-07 05:06:00,
2013-05-07 01:11:00,58.3,56.9,30.09,East,96,3.8,9.2,95,0.00,OVC,,0.00,WeatherDisplay:10.37,2013-05-07 05:11:00,
2013-05-07 01:16:00,58.3,56.9,30.09,East,101,4.2,5.8,95,0.00,OVC,,0.00,WeatherDisplay:10.37,2013-05-07 05:16:00,
2013-05-07 01:21:00,58.3,56.9,30.09,ESE,103,4.5,4.6,95,0.00,OVC,,0.00,WeatherDisplay:10.37,2013-05-07 05:21:00,
2013-05-07 01:26:00,58.3,57.2,30.09,ESE,103,4.2,5.8,96,0.00,OVC,,0.00,WeatherDisplay:10.37,2013-05-07 05:26:00,
2013-05-07 01:31:00,58.3,56.9,30.08,East,92,4.7,5.0,95,0.00,OVC,,0.00,WeatherDisplay:10.37,2013-05-07 05:31:00,
2013-05-07 01:36:00,58.3,57.2,30.09,East,88,4.1,5.8,96,0.00,OVC,,0.00,WeatherDisplay:10.37,2013-05-07 05:36:00,
2013-05-07 01:41:00,58.3,57.2,30.08,East,89,3.7,4.6,96,0.00,OVC,,0.00,WeatherDisplay:10.37,2013-05-07 05:41:00,
2013-05-07 01:46:00,58.3,57.2,30.08,East,94,3.7,4.6,96,0.00,OVC,,0.00,WeatherDisplay:10.37,2013-05-07 05:46:00,
2013-05-07 01:51:00,58.3,57.2,30.08,East,99,3.2,5.0,96,0.00,OVC,,0.00,WeatherDisplay:10.37,2013-05-07 05:51:00,
2013-05-07 01:56:00,58.3,57.2,30.07,East,87,3.6,4.6,96,0.00,OVC,,0.00,WeatherDisplay:10.37,2013-05-07 05:56:00,
2013-05-07 02:01:00,58.3,57.2,30.07,East,96,3.5,4.0,96,0.00,OVC,,0.00,WeatherDisplay:10.37,2013-05-07 06:01:00,
2013-05-07 02:06:00,58.3,57.2,30.07,East,94,3.8,4.6,96,0.00,OVC,,0.00,WeatherDisplay:10.37,2013-05-07 06:06:00,
2013-05-07 02:11:00,58.3,57.2,30.07,East,95,3.3,4.6,96,0.00,OVC,,0.00,WeatherDisplay:10.37,2013-05-07 06:11:00,
2013-05-07 02:16:00,58.3,57.2,30.07,ESE,104,4.1,4.6,96,0.00,OVC,,0.00,WeatherDisplay:10.37,2013-05-07 06:16:00,
2013-05-07 02:21:00,58.3,57.2,30.07,East,101,3.3,4.6,96,0.00,OVC,,0.00,WeatherDisplay:10.37,2013-05-07 06:21:00,
2013-05-07 02:26:00,58.3,57.2,30.06,ESE,106,3.7,5.0,96,0.00,OVC,,0.00,WeatherDisplay:10.37,2013-05-07 06:26:00,
2013-05-07 02:31:00,58.3,57.2,30.06,East,92,3.2,4.6,96,0.00,OVC,,0.00,WeatherDisplay:10.37,2013-05-07 06:31:00,
2013-05-07 02:36:00,58.3,57.2,30.06,East,101,2.7,5.0,96,0.00,OVC,,0.00,WeatherDisplay:10.37,2013-05-07 06:36:00,
2013-05-07 02:41:00,58.3,57.2,30.06,East,96,3.2,3.5,96,0.00,OVC,,0.00,WeatherDisplay:10.37,2013-05-07 06:41:00,
2013-05-07 02:46:00,58.3,57.2,30.06,East,95,4.2,5.8,96,0.00,OVC,,0.00,WeatherDisplay:10.37,2013-05-07 06:46:00,
2013-05-07 02:51:00,58.3,57.2,30.06,East,98,5.1,5.8,96,0.00,OVC,,0.00,WeatherDisplay:10.37,2013-05-07 06:51:00,
2013-05-07 02:56:00,58.3,57.2,30.06,East,101,3.6,5.0,96,0.00,OVC,,0.00,WeatherDisplay:10.37,2013-05-07 06:56:00,
2013-05-07 03:01:00,58.3,57.2,30.06,ESE,103,4.6,7.0,96,0.00,OVC,,0.00,WeatherDisplay:10.37,2013-05-07 07:01:00,
2013-05-07 03:06:00,58.3,57.2,30.06,ESE,105,3.8,6.0,96,0.00,OVC,,0.00,WeatherDisplay:10.37,2013-05-07 07:06:00,
2013-05-07 03:11:00,58.3,57.2,30.06,East,100,3.5,4.6,96,0.00,OVC,,0.00,WeatherDisplay:10.37,2013-05-07 07:11:00,
2013-05-07 03:16:00,58.4,57.3,30.05,ESE,104,3.4,6.0,96,0.00,OVC,,0.00,WeatherDisplay:10.37,2013-05-07 07:16:00,
2013-05-07 03:21:00,58.3,57.2,30.05,East,99,4.3,6.0,96,0.00,OVC,,0.00,WeatherDisplay:10.37,2013-05-07 07:21:00,
2013-05-07 03:26:00,58.3,57.2,30.05,East,101,3.1,4.0,96,0.00,OVC,,0.00,WeatherDisplay:10.37,2013-05-07 07:26:00,
2013-05-07 03:32:00,58.3,57.2,30.05,ESE,103,3.3,4.6,96,0.00,OVC,,0.00,WeatherDisplay:10.37,2013-05-07 07:32:00,
2013-05-07 03:37:00,58.4,57.3,30.05,East,94,3.1,3.5,96,0.00,OVC,,0.00,WeatherDisplay:10.37,2013-05-07 07:37:00,
2013-05-07 03:42:00,58.3,57.2,30.05,East,96,3.3,4.0,96,0.00,OVC,,0.00,WeatherDisplay:10.37,2013-05-07 07:42:00,
2013-05-07 03:47:00,58.3,57.2,30.05,ESE,109,3.8,6.0,96,0.00,OVC,,0.00,WeatherDisplay:10.37,2013-05-07 07:47:00,
2013-05-07 03:52:00,58.3,57.2,30.05,ESE,107,5.4,6.9,96,0.00,OVC,,0.00,WeatherDisplay:10.37,2013-05-07 07:52:00,
2013-05-07 03:57:00,58.4,57.6,30.05,ESE,103,3.9,4.6,97,0.00,OVC,,0.00,WeatherDisplay:10.37,2013-05-07 07:57:00,
2013-05-07 04:02:00,58.3,57.5,30.05,East,98,3.4,4.6,97,0.00,OVC,,0.00,WeatherDisplay:10.37,2013-05-07 08:02:00,
2013-05-07 04:07:00,58.4,57.6,30.05,East,98,3.0,4.6,97,0.00,OVC,,0.00,WeatherDisplay:10.37,2013-05-07 08:07:00,
2013-05-07 04:12:00,58.4,57.6,30.05,East,98,3.2,5.0,97,0.00,OVC,,0.00,WeatherDisplay:10.37,2013-05-07 08:12:00,
2013-05-07 04:17:00,58.4,57.6,30.05,East,91,4.6,5.8,97,0.00,OVC,,0.00,WeatherDisplay:10.37,2013-05-07 08:17:00,
2013-05-07 04:22:00,58.4,57.6,30.06,East,96,3.2,4.0,97,0.00,OVC,,0.00,WeatherDisplay:10.37,2013-05-07 08:22:00,
2013-05-07 04:27:00,58.4,57.6,30.06,ESE,105,4.2,5.0,97,0.00,OVC,,0.00,WeatherDisplay:10.37,2013-05-07 08:27:00,
2013-05-07 04:32:00,58.4,57.6,30.06,ESE,105,3.8,4.6,97,0.00,OVC,,0.00,WeatherDisplay:10.37,2013-05-07 08:32:00,
2013-05-07 04:37:00,58.6,57.8,30.06,ESE,110,3.9,4.6,97,0.00,OVC,,0.00,WeatherDisplay:10.37,2013-05-07 08:37:00,
2013-05-07 04:42:00,58.6,57.8,30.06,East,99,3.5,3.5,97,0.00,OVC,,0.00,WeatherDisplay:10.37,2013-05-07 08:42:00,
2013-05-07 04:47:00,58.6,57.8,30.05,East,91,3.1,4.6,97,0.00,OVC,,0.00,WeatherDisplay:10.37,2013-05-07 08:47:00,
2013-05-07 04:52:00,58.4,57.6,30.05,East,98,4.6,4.6,97,0.00,OVC,,0.00,WeatherDisplay:10.37,2013-05-07 08:52:00,
2013-05-07 04:57:00,58.4,57.6,30.05,East,100,3.6,5.8,97,0.00,OVC,,0.00,WeatherDisplay:10.37,2013-05-07 08:57:00,
2013-05-07 05:02:00,58.4,57.6,30.05,East,89,2.7,3.5,97,0.00,OVC,,0.00,WeatherDisplay:10.37,2013-05-07 09:02:00,
2013-05-07 05:07:00,58.4,57.6,30.05,East,93,3.6,3.6,97,0.00,OVC,,0.00,WeatherDisplay:10.37,2013-05-07 09:07:00,
2013-05-07 05:12:00,58.4,57.6,30.05,East,99,3.0,3.5,97,0.00,OVC,,0.00,WeatherDisplay:10.37,2013-05-07 09:12:00,
2013-05-07 05:17:00,58.4,57.6,30.04,East,92,3.2,4.0,97,0.00,OVC,,0.00,WeatherDisplay:10.37,2013-05-07 09:17:00,
2013-05-07 05:22:00,58.4,57.6,30.05,East,101,3.6,4.6,97,0.00,OVC,,0.00,WeatherDisplay:10.37,2013-05-07 09:22:00,
2013-05-07 05:27:00,58.4,57.6,30.04,East,98,2.9,3.5,97,0.00,OVC,,0.00,WeatherDisplay:10.37,2013-05-07 09:27:00,
2013-05-07 05:32:00,58.4,57.6,30.05,East,90,3.2,4.6,97,0.00,OVC,,0.00,WeatherDisplay:10.37,2013-05-07 09:32:00,
2013-05-07 05:37:00,58.4,57.6,30.04,East,96,2.0,3.5,97,0.00,OVC,,0.00,WeatherDisplay:10.37,2013-05-07 09:37:00,
2013-05-07 05:42:00,58.3,57.5,30.04,ESE,103,4.1,5.0,97,0.00,OVC,,0.00,WeatherDisplay:10.37,2013-05-07 09:42:00,
2013-05-07 05:47:00,58.1,57.3,30.04,East,88,3.1,4.0,97,0.00,OVC,,0.00,WeatherDisplay:10.37,2013-05-07 09:47:00,
2013-05-07 05:52:00,58.0,57.2,30.05,East,91,4.4,5.8,97,0.00,OVC,,0.00,WeatherDisplay:10.37,2013-05-07 09:52:00,
2013-05-07 05:57:00,57.8,57.0,30.05,East,97,3.9,5.8,97,0.00,OVC,,0.00,WeatherDisplay:10.37,2013-05-07 09:57:00,
2013-05-07 06:02:00,57.8,57.0,30.06,East,96,4.4,5.8,97,0.00,OVC,,0.00,WeatherDisplay:10.37,2013-05-07 10:02:00,
2013-05-07 06:07:00,57.6,56.8,30.06,East,95,4.1,5.8,97,0.00,OVC,,0.00,WeatherDisplay:10.37,2013-05-07 10:07:00,
2013-05-07 06:12:00,57.6,56.8,30.06,ESE,104,4.3,4.6,97,0.00,OVC,,0.00,WeatherDisplay:10.37,2013-05-07 10:12:00,
2013-05-07 06:17:00,57.6,56.8,30.06,ESE,104,3.6,5.0,97,0.00,OVC,,0.00,WeatherDisplay:10.37,2013-05-07 10:17:00,
2013-05-07 06:22:00,57.5,56.7,30.06,East,90,4.2,5.8,97,0.00,OVC,,0.00,WeatherDisplay:10.37,2013-05-07 10:22:00,
2013-05-07 06:27:00,57.5,56.7,30.06,East,94,2.4,4.0,97,0.00,OVC,,0.00,WeatherDisplay:10.37,2013-05-07 10:27:00,
2013-05-07 06:32:00,57.3,56.5,30.05,East,93,3.1,3.5,97,0.00,OVC,,0.00,WeatherDisplay:10.37,2013-05-07 10:32:00,
2013-05-07 06:37:00,57.3,56.5,30.06,East,94,2.6,4.6,97,0.00,OVC,,0.00,WeatherDisplay:10.37,2013-05-07 10:37:00,
2013-05-07 06:42:00,57.2,56.4,30.06,East,92,3.1,3.5,97,0.00,OVC,,0.00,WeatherDisplay:10.37,2013-05-07 10:42:00,
2013-05-07 06:47:00,57.2,56.4,30.06,East,92,2.5,3.5,97,0.00,OVC,,0.00,WeatherDisplay:10.37,2013-05-07 10:47:00,
2013-05-07 06:52:00,57.2,56.4,30.06,East,92,2.4,3.5,97,0.00,OVC,,0.00,WeatherDisplay:10.37,2013-05-07 10:52:00,
2013-05-07 06:57:00,57.0,56.2,30.06,East,89,2.0,3.5,97,0.00,OVC,,0.00,WeatherDisplay:10.37,2013-05-07 10:57:00,
2013-05-07 07:02:00,57.0,56.2,30.06,East,88,2.7,3.5,97,0.00,OVC,,0.00,WeatherDisplay:10.37,2013-05-07 11:02:00,
2013-05-07 07:07:00,57.0,56.2,30.06,East,89,1.9,3.5,97,0.00,OVC,,0.00,WeatherDisplay:10.37,2013-05-07 11:07:00,
2013-05-07 07:12:00,57.0,56.2,30.06,East,90,1.2,3.5,97,0.00,OVC,,0.00,WeatherDisplay:10.37,2013-05-07 11:12:00,
2013-05-07 07:17:00,57.0,56.2,30.06,East,90,2.3,3.5,97,0.00,OVC,,0.00,WeatherDisplay:10.37,2013-05-07 11:17:00,
2013-05-07 07:22:00,57.0,56.2,30.06,East,90,2.1,3.5,97,0.00,OVC,,0.00,WeatherDisplay:10.37,2013-05-07 11:22:00,
2013-05-07 07:27:00,57.0,56.2,30.06,East,101,2.0,3.5,97,0.00,OVC,,0.00,WeatherDisplay:10.37,2013-05-07 11:27:00,
2013-05-07 07:32:00,57.0,56.2,30.06,East,97,2.3,3.5,97,0.00,OVC,,0.00,WeatherDisplay:10.37,2013-05-07 11:32:00,
2013-05-07 07:37:00,57.0,56.2,30.06,East,95,2.5,3.5,97,0.00,OVC,,0.00,WeatherDisplay:10.37,2013-05-07 11:37:00,
2013-05-07 07:43:00,57.0,56.2,30.06,ESE,102,2.2,3.5,97,0.00,OVC,,0.00,WeatherDisplay:10.37,2013-05-07 11:43:00,
2013-05-07 07:48:00,57.2,56.4,30.06,East,98,2.5,4.0,97,0.00,OVC,,0.00,WeatherDisplay:10.37,2013-05-07 11:48:00,
2013-05-07 07:53:00,57.2,56.4,30.06,East,94,3.7,5.8,97,0.00,OVC,,0.00,WeatherDisplay:10.37,2013-05-07 11:53:00,
2013-05-07 07:58:00,57.3,56.5,30.07,East,92,2.8,5.8,97,0.00,OVC,,0.00,WeatherDisplay:10.37,2013-05-07 11:58:00,
2013-05-07 08:03:00,57.3,56.5,30.07,East,90,3.2,4.6,97,0.00,OVC,,0.00,WeatherDisplay:10.37,2013-05-07 12:03:00,
2013-05-07 08:08:00,57.5,56.7,30.07,East,94,3.1,4.6,97,0.00,OVC,,0.00,WeatherDisplay:10.37,2013-05-07 12:08:00,
2013-05-07 08:13:00,57.6,56.8,30.07,East,93,2.9,4.0,97,0.00,OVC,,0.00,WeatherDisplay:10.37,2013-05-07 12:13:00,
2013-05-07 08:18:00,57.8,57.2,30.07,ENE,63,4.0,5.8,98,0.00,OVC,,0.00,WeatherDisplay:10.37,2013-05-07 12:18:00,
2013-05-07 08:23:00,58.0,57.4,30.07,East,88,2.6,3.5,98,0.00,OVC,,0.00,WeatherDisplay:10.37,2013-05-07 12:23:00,
2013-05-07 08:28:00,58.0,57.4,30.07,East,92,2.4,3.5,98,0.00,OVC,,0.00,WeatherDisplay:10.37,2013-05-07 12:28:00,
2013-05-07 08:33:00,58.3,57.5,30.07,ESE,103,3.8,5.0,97,0.00,OVC,,0.00,WeatherDisplay:10.37,2013-05-07 12:33:00,
2013-05-07 08:38:00,58.4,57.8,30.07,East,100,4.7,6.9,98,0.00,OVC,,0.00,WeatherDisplay:10.37,2013-05-07 12:38:00,
2013-05-07 08:43:00,58.4,57.6,30.07,ESE,105,3.4,4.6,97,0.00,OVC,,0.00,WeatherDisplay:10.37,2013-05-07 12:43:00,
2013-05-07 08:48:00,58.6,57.8,30.08,ESE,105,4.0,5.8,97,0.00,OVC,,0.00,WeatherDisplay:10.37,2013-05-07 12:48:00,
2013-05-07 08:53:00,58.6,57.8,30.08,East,95,3.9,5.8,97,0.00,-RA,,0.00,WeatherDisplay:10.37,2013-05-07 12:53:00,
2013-05-07 08:58:00,58.7,57.9,30.08,East,92,4.6,5.8,97,0.00,-RA,,0.00,WeatherDisplay:10.37,2013-05-07 12:58:00,
2013-05-07 09:03:00,58.7,57.9,30.08,ESE,107,3.4,4.0,97,0.00,-RA,,0.00,WeatherDisplay:10.37,2013-05-07 13:03:00,
2013-05-07 09:08:00,58.7,57.9,30.08,ESE,103,4.0,5.8,97,0.00,-RA,,0.00,WeatherDisplay:10.37,2013-05-07 13:08:00,
2013-05-07 09:13:00,58.7,57.9,30.08,ESE,103,2.9,4.0,97,0.00,-RA,,0.00,WeatherDisplay:10.37,2013-05-07 13:13:00,
2013-05-07 09:18:00,58.6,57.8,30.08,East,99,4.1,5.8,97,0.00,-RA,,0.00,WeatherDisplay:10.37,2013-05-07 13:18:00,
2013-05-07 09:23:00,58.7,57.9,30.08,East,98,3.4,5.8,97,0.01,-RA,,0.01,WeatherDisplay:10.37,2013-05-07 13:23:00,
2013-05-07 09:28:00,58.7,57.9,30.08,East,91,2.1,3.5,97,0.01,-RA,,0.01,WeatherDisplay:10.37,2013-05-07 13:28:00,
2013-05-07 09:33:00,58.7,57.9,30.08,East,99,3.7,4.6,97,0.01,OVC,,0.01,WeatherDisplay:10.37,2013-05-07 13:33:00,
2013-05-07 09:38:00,58.7,57.9,30.08,ESE,103,3.7,4.6,97,0.01,OVC,,0.01,WeatherDisplay:10.37,2013-05-07 13:38:00,
2013-05-07 09:43:00,58.9,58.1,30.08,East,96,3.4,4.6,97,0.02,RA,,0.02,WeatherDisplay:10.37,2013-05-07 13:43:00,
2013-05-07 09:48:00,58.9,58.1,30.08,East,82,2.5,3.5,97,0.03,RA,,0.03,WeatherDisplay:10.37,2013-05-07 13:48:00,
2013-05-07 09:53:00,58.9,58.1,30.08,East,94,2.2,3.5,97,0.03,RA,,0.03,WeatherDisplay:10.37,2013-05-07 13:53:00,
2013-05-07 09:58:00,58.9,58.1,30.08,East,96,2.5,4.6,97,0.04,RA,,0.04,WeatherDisplay:10.37,2013-05-07 13:58:00,
2013-05-07 10:03:00,58.9,58.1,30.08,East,87,3.0,3.5,97,0.04,RA,,0.04,WeatherDisplay:10.37,2013-05-07 14:03:00,
2013-05-07 10:08:00,58.9,58.1,30.08,East,88,2.4,3.5,97,0.05,RA,,0.05,WeatherDisplay:10.37,2013-05-07 14:08:00,
2013-05-07 10:13:00,58.9,58.1,30.08,ESE,105,2.8,3.5,97,0.06,RA,,0.07,WeatherDisplay:10.37,2013-05-07 14:13:00,
2013-05-07 10:18:00,59.0,58.2,30.08,East,91,1.8,3.5,97,0.07,RA,,0.07,WeatherDisplay:10.37,2013-05-07 14:18:00,
2013-05-07 10:23:00,59.0,58.2,30.08,East,92,2.4,3.5,97,0.07,RA,,0.09,WeatherDisplay:10.37,2013-05-07 14:23:00,
2013-05-07 10:28:00,59.0,58.2,30.07,East,92,2.2,3.5,97,0.09,RA,,0.10,WeatherDisplay:10.37,2013-05-07 14:28:00,
2013-05-07 10:33:00,59.2,58.3,30.07,East,94,2.5,3.5,97,0.10,RA,,0.11,WeatherDisplay:10.37,2013-05-07 14:33:00,
2013-05-07 10:38:00,59.2,58.3,30.07,East,94,1.9,3.5,97,0.12,RA,,0.13,WeatherDisplay:10.37,2013-05-07 14:38:00,
2013-05-07 10:43:00,59.0,58.2,30.07,SSE,162,0.9,3.5,97,0.12,-RA,,0.14,WeatherDisplay:10.37,2013-05-07 14:43:00,
2013-05-07 10:48:00,59.3,58.4,30.07,SSE,162,2.0,3.5,97,0.12,-RA,,0.15,WeatherDisplay:10.37,2013-05-07 14:48:00,
2013-05-07 10:53:00,59.3,58.4,30.07,SSE,162,1.5,3.5,97,0.12,-RA,,0.15,WeatherDisplay:10.37,2013-05-07 14:53:00,
2013-05-07 10:58:00,59.3,58.4,30.07,ESE,107,2.8,5.0,97,0.11,-RA,,0.15,WeatherDisplay:10.37,2013-05-07 14:58:00,
2013-05-07 11:03:00,59.3,58.4,30.07,ESE,106,2.1,3.5,97,0.11,-RA,,0.16,WeatherDisplay:10.37,2013-05-07 15:03:00,
2013-05-07 11:08:00,59.5,58.6,30.07,East,91,2.0,3.5,97,0.12,-RA,,0.17,WeatherDisplay:10.37,2013-05-07 15:08:00,
2013-05-07 11:13:00,59.5,58.6,30.07,East,91,2.8,3.5,97,0.12,-RA,,0.18,WeatherDisplay:10.37,2013-05-07 15:13:00,
2013-05-07 11:18:00,59.6,58.7,30.07,East,96,3.3,4.0,97,0.12,-RA,,0.19,WeatherDisplay:10.37,2013-05-07 15:18:00,
2013-05-07 11:23:00,59.8,58.9,30.07,ESE,109,2.2,3.5,97,0.11,RA,,0.19,WeatherDisplay:10.37,2013-05-07 15:23:00,
2013-05-07 11:28:00,59.9,59.0,30.07,ESE,105,3.7,4.6,97,0.09,OVC,,0.19,WeatherDisplay:10.37,2013-05-07 15:28:00,
2013-05-07 11:33:00,59.9,59.0,30.07,East,85,3.7,4.6,97,0.08,-RA,,0.19,WeatherDisplay:10.37,2013-05-07 15:33:00,
2013-05-07 11:38:00,60.1,59.2,30.07,East,98,4.1,4.6,97,0.06,-RA,,0.19,WeatherDisplay:10.37,2013-05-07 15:38:00,
2013-05-07 11:43:00,60.1,59.2,30.07,East,93,5.3,6.9,97,0.05,-RA,,0.19,WeatherDisplay:10.37,2013-05-07 15:43:00,
2013-05-07 11:48:00,60.1,59.2,30.07,East,93,3.9,5.0,97,0.04,-RA,,0.19,WeatherDisplay:10.37,2013-05-07 15:48:00,
2013-05-07 11:53:00,60.1,59.2,30.06,ESE,103,4.0,5.0,97,0.04,OVC,,0.19,WeatherDisplay:10.37,2013-05-07 15:53:00,
2013-05-07 11:58:00,60.2,59.3,30.06,East,96,3.8,6.0,97,0.04,OVC,,0.19,WeatherDisplay:10.37,2013-05-07 15:58:00,
2013-05-07 12:03:00,60.4,59.5,30.06,East,90,2.3,4.0,97,0.03,OVC,,0.19,WeatherDisplay:10.37,2013-05-07 16:03:00,
2013-05-07 12:08:00,60.4,59.5,30.06,East,96,3.1,3.5,97,0.02,OVC,,0.19,WeatherDisplay:10.37,2013-05-07 16:08:00,
2013-05-07 12:13:00,60.5,59.6,30.06,ESE,105,4.2,5.8,97,0.01,OVC,,0.19,WeatherDisplay:10.37,2013-05-07 16:13:00,
2013-05-07 12:18:00,60.7,59.8,30.06,East,98,3.2,3.5,97,0.00,OVC,,0.19,WeatherDisplay:10.37,2013-05-07 16:18:00,
2013-05-07 12:23:00,61.0,60.1,30.06,ENE,68,3.0,3.5,97,0.00,-RA,,0.19,WeatherDisplay:10.37,2013-05-07 16:23:00,
2013-05-07 12:28:00,61.2,60.3,30.06,ESE,113,4.1,6.9,97,0.00,-RA,,0.19,WeatherDisplay:10.37,2013-05-07 16:28:00,
2013-05-07 12:33:00,61.2,60.3,30.06,East,101,4.0,4.6,97,0.00,-RA,,0.19,WeatherDisplay:10.37,2013-05-07 16:33:00,
2013-05-07 12:39:00,61.2,60.3,30.05,East,101,4.4,6.9,97,0.00,-RA,,0.19,WeatherDisplay:10.37,2013-05-07 16:39:00,
2013-05-07 12:44:00,61.3,60.4,30.05,ESE,105,3.7,4.6,97,0.00,-RA,,0.19,WeatherDisplay:10.37,2013-05-07 16:44:00,
2013-05-07 12:49:00,61.3,60.4,30.05,ESE,104,4.2,5.8,97,0.00,-RA,,0.19,WeatherDisplay:10.37,2013-05-07 16:49:00,
2013-05-07 12:54:00,61.6,60.7,30.05,ESE,103,3.0,4.0,97,0.00,-RA,,0.19,WeatherDisplay:10.37,2013-05-07 16:54:00,
2013-05-07 12:59:00,61.8,60.9,30.05,East,96,3.8,5.8,97,0.00,-RA,,0.19,WeatherDisplay:10.37,2013-05-07 16:59:00,
2013-05-07 13:04:00,61.6,60.4,30.05,ESE,103,4.2,5.8,96,0.00,-RA,,0.19,WeatherDisplay:10.37,2013-05-07 17:04:00,
2013-05-07 13:09:00,61.8,60.6,30.05,ESE,104,3.1,3.5,96,0.00,-RA,,0.19,WeatherDisplay:10.37,2013-05-07 17:09:00,
2013-05-07 13:14:00,62.1,60.9,30.05,East,93,2.5,3.5,96,0.00,-RA,,0.19,WeatherDisplay:10.37,2013-05-07 17:14:00,
2013-05-07 13:19:00,62.0,60.8,30.04,ESE,102,3.6,4.6,96,0.00,-RA,,0.19,WeatherDisplay:10.37,2013-05-07 17:19:00,
2013-05-07 13:24:00,62.0,60.8,30.05,East,98,4.0,5.8,96,0.00,-RA,,0.19,WeatherDisplay:10.37,2013-05-07 17:24:00,
2013-05-07 13:29:00,62.0,60.8,30.04,East,93,2.8,3.5,96,0.00,-RA,,0.19,WeatherDisplay:10.37,2013-05-07 17:29:00,
2013-05-07 13:34:00,62.1,60.9,30.04,East,88,3.2,4.0,96,0.00,-RA,,0.19,WeatherDisplay:10.37,2013-05-07 17:34:00,
2013-05-07 13:39:00,62.3,61.1,30.04,East,97,3.2,3.5,96,0.00,-RA,,0.19,WeatherDisplay:10.37,2013-05-07 17:39:00,
2013-05-07 13:44:00,62.4,61.2,30.04,ENE,74,3.0,4.0,96,0.00,-RA,,0.19,WeatherDisplay:10.37,2013-05-07 17:44:00,
2013-05-07 13:49:00,62.7,61.5,30.03,East,100,3.3,5.8,96,0.00,-RA,,0.19,WeatherDisplay:10.37,2013-05-07 17:49:00,
2013-05-07 13:54:00,62.7,61.5,30.04,East,94,4.3,5.8,96,0.00,OVC,,0.19,WeatherDisplay:10.37,2013-05-07 17:54:00,
2013-05-07 13:59:00,62.9,61.7,30.04,East,94,4.0,6.9,96,0.00,OVC,,0.19,WeatherDisplay:10.37,2013-05-07 17:59:00,
2013-05-07 14:04:00,62.9,61.7,30.03,East,91,4.4,5.8,96,0.00,OVC,,0.19,WeatherDisplay:10.37,2013-05-07 18:04:00,
2013-05-07 14:09:00,62.9,61.7,30.03,East,94,3.6,5.0,96,0.00,OVC,,0.19,WeatherDisplay:10.37,2013-05-07 18:09:00,
2013-05-07 14:14:00,62.9,61.7,30.03,ESE,103,4.7,4.7,96,0.01,RA,,0.20,WeatherDisplay:10.37,2013-05-07 18:14:00,
2013-05-07 14:19:00,63.1,61.9,30.03,East,98,3.7,5.8,96,0.01,RA,,0.20,WeatherDisplay:10.37,2013-05-07 18:19:00,
2013-05-07 14:24:00,63.2,62.0,30.03,ESE,104,4.0,4.6,96,0.01,-RA,,0.20,WeatherDisplay:10.37,2013-05-07 18:24:00,
2013-05-07 14:29:00,63.5,62.3,30.03,East,94,3.9,4.6,96,0.01,-RA,,0.20,WeatherDisplay:10.37,2013-05-07 18:29:00,
2013-05-07 14:34:00,63.4,62.2,30.03,East,98,3.5,4.6,96,0.01,OVC,,0.20,WeatherDisplay:10.37,2013-05-07 18:34:00,
2013-05-07 14:39:00,63.5,62.3,30.02,ESE,103,3.9,4.6,96,0.01,OVC,,0.20,WeatherDisplay:10.37,2013-05-07 18:39:00,
2013-05-07 14:44:00,63.9,62.7,30.02,ESE,103,4.9,4.9,96,0.01,OVC,,0.20,WeatherDisplay:10.37,2013-05-07 18:44:00,
2013-05-07 14:49:00,64.2,63.0,30.02,ESE,110,4.5,5.8,96,0.01,OVC,,0.20,WeatherDisplay:10.37,2013-05-07 18:49:00,
2013-05-07 14:54:00,64.3,62.8,30.02,ESE,104,4.8,5.8,95,0.01,OVC,,0.20,WeatherDisplay:10.37,2013-05-07 18:54:00,
2013-05-07 14:59:00,64.2,62.4,30.02,ESE,109,5.7,6.9,94,0.01,OVC,,0.20,WeatherDisplay:10.37,2013-05-07 18:59:00,
2013-05-07 15:04:00,64.0,62.2,30.02,ESE,115,6.8,9.2,94,0.01,OVC,,0.20,WeatherDisplay:10.37,2013-05-07 19:04:00,
2013-05-07 15:09:00,64.0,61.9,30.01,ESE,102,5.6,9.2,93,0.01,OVC,,0.21,WeatherDisplay:10.37,2013-05-07 19:09:00,
2013-05-07 15:14:00,63.9,61.8,30.01,ESE,109,5.3,9.2,93,0.01,RA,,0.21,WeatherDisplay:10.37,2013-05-07 19:14:00,
2013-05-07 15:19:00,63.9,61.8,30.01,ESE,104,4.7,10.4,93,0.01,RA,,0.21,WeatherDisplay:10.37,2013-05-07 19:19:00,
2013-05-07 15:24:00,64.0,62.2,30.01,ESE,110,5.7,6.9,94,0.01,OVC,,0.21,WeatherDisplay:10.37,2013-05-07 19:24:00,
2013-05-07 15:29:00,64.2,62.4,30.01,East,92,4.8,5.0,94,0.01,OVC,,0.21,WeatherDisplay:10.37,2013-05-07 19:29:00,
2013-05-07 15:34:00,63.9,61.8,30.01,East,100,6.9,9.2,93,0.01,OVC,,0.21,WeatherDisplay:10.37,2013-05-07 19:34:00,
2013-05-07 15:39:00,64.0,61.9,30.01,ESE,103,5.4,6.9,93,0.01,OVC,,0.21,WeatherDisplay:10.37,2013-05-07 19:39:00,
2013-05-07 15:44:00,64.3,62.2,30.01,ESE,103,3.1,4.0,93,0.01,OVC,,0.21,WeatherDisplay:10.37,2013-05-07 19:44:00,
2013-05-07 15:49:00,64.3,62.2,30.01,ESE,104,4.3,6.9,93,0.01,OVC,,0.21,WeatherDisplay:10.37,2013-05-07 19:49:00,
2013-05-07 15:54:00,64.5,62.4,30.00,ENE,77,4.3,5.0,93,0.01,-RA,,0.21,WeatherDisplay:10.37,2013-05-07 19:54:00,
2013-05-07 15:59:00,64.3,61.9,30.00,ESE,103,5.4,7.0,92,0.01,-RA,,0.21,WeatherDisplay:10.37,2013-05-07 19:59:00,
2013-05-07 16:04:00,64.2,61.8,30.00,ESE,109,6.6,10.4,92,0.01,-RA,,0.21,WeatherDisplay:10.37,2013-05-07 20:04:00,
2013-05-07 16:09:00,64.2,61.8,30.00,ESE,110,5.9,6.9,92,0.01,-RA,,0.21,WeatherDisplay:10.37,2013-05-07 20:09:00,
2013-05-07 16:14:00,64.0,61.6,30.00,ESE,110,4.3,6.0,92,0.00,OVC,,0.21,WeatherDisplay:10.37,2013-05-07 20:14:00,
2013-05-07 16:19:00,63.9,61.5,30.00,ESE,110,6.4,11.5,92,0.00,OVC,,0.21,WeatherDisplay:10.37,2013-05-07 20:19:00,
2013-05-07 16:24:00,63.9,61.5,30.00,ESE,105,5.1,6.9,92,0.00,OVC,,0.21,WeatherDisplay:10.37,2013-05-07 20:24:00,
2013-05-07 16:29:00,64.0,61.6,30.00,ESE,103,8.2,9.0,92,0.00,OVC,,0.21,WeatherDisplay:10.37,2013-05-07 20:29:00,
2013-05-07 16:34:00,64.0,61.6,30.00,East,96,5.9,11.5,92,0.00,OVC,,0.21,WeatherDisplay:10.37,2013-05-07 20:34:00,
2013-05-07 16:39:00,64.2,61.8,30.00,ESE,102,5.5,8.1,92,0.00,OVC,,0.21,WeatherDisplay:10.37,2013-05-07 20:39:00,
2013-05-07 16:44:00,64.4,62.0,29.99,ESE,110,5.0,12.0,92,0.00,OVC,OVC,0.21,WeatherDisplay:10.37,2013-05-07 20:44:00,
2013-05-07 16:49:00,64.7,62.3,29.99,East,94,5.8,6.9,92,0.00,OVC,,0.21,WeatherDisplay:10.37,2013-05-07 20:49:00,
2013-05-07 16:54:00,64.7,62.3,29.99,ESE,106,5.0,10.0,92,0.00,-RA,-RA,0.21,WeatherDisplay:10.37,2013-05-07 20:54:00,
2013-05-07 16:59:00,64.7,62.0,29.98,ESE,109,4.0,11.5,91,0.00,-RA,,0.21,WeatherDisplay:10.37,2013-05-07 20:59:00,
2013-05-07 17:04:00,65.0,62.3,29.98,ESE,107,7.0,9.0,91,0.00,-RA,-RA,0.21,WeatherDisplay:10.37,2013-05-07 21:04:00,
2013-05-07 17:09:00,65.3,62.6,29.98,East,98,5.9,9.2,91,0.00,-RA,,0.21,WeatherDisplay:10.37,2013-05-07 21:09:00,
2013-05-07 17:14:00,65.5,62.5,29.97,East,94,7.0,10.0,90,0.00,-RA,-RA,0.21,WeatherDisplay:10.37,2013-05-07 21:14:00,
2013-05-07 17:19:00,65.5,62.2,29.98,ESE,108,6.6,9.2,89,0.00,-RA,,0.21,WeatherDisplay:10.37,2013-05-07 21:19:00,
2013-05-07 17:24:00,65.3,61.7,29.98,ESE,109,10.2,13.8,88,0.00,OVC,,0.21,WeatherDisplay:10.37,2013-05-07 21:24:00,
2013-05-07 17:29:00,65.3,62.0,29.98,ESE,107,6.0,15.0,89,0.00,OVC,OVC,0.21,WeatherDisplay:10.37,2013-05-07 21:29:00,
2013-05-07 17:34:00,65.3,61.7,29.98,ESE,107,6.4,10.4,88,0.00,OVC,,0.21,WeatherDisplay:10.37,2013-05-07 21:34:00,
2013-05-07 17:39:00,65.3,62.0,29.98,East,101,5.1,6.9,89,0.00,OVC,,0.21,WeatherDisplay:10.37,2013-05-07 21:39:00,
2013-05-07 17:44:00,65.2,61.6,29.98,ESE,112,5.9,8.0,88,0.00,OVC,,0.21,WeatherDisplay:10.37,2013-05-07 21:44:00,
2013-05-07 17:49:00,65.1,61.4,29.98,ESE,107,6.0,12.0,88,0.00,OVC,OVC,0.21,WeatherDisplay:10.37,2013-05-07 21:49:00,
2013-05-07 17:54:00,64.8,61.2,29.98,ESE,109,5.9,8.1,88,0.00,OVC,,0.21,WeatherDisplay:10.37,2013-05-07 21:54:00,
2013-05-07 17:59:00,64.8,61.2,29.98,ESE,104,5.8,6.9,88,0.00,OVC,,0.21,WeatherDisplay:10.37,2013-05-07 21:59:00,
2013-05-07 18:04:00,64.7,61.1,29.98,East,100,6.5,11.5,88,0.00,OVC,,0.21,WeatherDisplay:10.37,2013-05-07 22:04:00,
2013-05-07 18:09:00,64.7,61.1,29.98,ESE,108,6.9,9.2,88,0.00,OVC,,0.21,WeatherDisplay:10.37,2013-05-07 22:09:00,
2013-05-07 18:15:00,64.5,61.2,29.98,ESE,105,6.3,8.1,89,0.00,BKN,,0.21,WeatherDisplay:10.37,2013-05-07 22:15:00,
2013-05-07 18:19:00,64.5,61.2,29.98,East,101,6.5,8.1,89,0.00,BKN,,0.21,WeatherDisplay:10.37,2013-05-07 22:19:00,
2013-05-07 18:24:00,64.5,60.5,29.98,ESE,103,5.5,6.9,87,0.00,BKN,,0.21,WeatherDisplay:10.37,2013-05-07 22:24:00,
2013-05-07 18:29:00,64.5,61.2,29.99,East,99,5.8,8.1,89,0.00,BKN,,0.21,WeatherDisplay:10.37,2013-05-07 22:29:00,
2013-05-07 18:34:00,64.3,61.3,29.99,ENE,69,4.8,5.0,90,0.00,OVC,,0.21,WeatherDisplay:10.37,2013-05-07 22:34:00,
2013-05-07 18:40:00,64.2,61.2,29.99,East,86,3.9,5.8,90,0.00,OVC,,0.21,WeatherDisplay:10.37,2013-05-07 22:40:00,
2013-05-07 18:45:00,64.2,61.2,29.99,East,101,4.5,5.8,90,0.00,OVC,,0.21,WeatherDisplay:10.37,2013-05-07 22:45:00,
2013-05-07 18:50:00,64.2,61.2,29.99,ESE,103,4.7,5.0,90,0.00,OVC,,0.21,WeatherDisplay:10.37,2013-05-07 22:50:00,
2013-05-07 18:55:00,64.2,61.2,29.99,East,101,3.8,5.0,90,0.00,BKN,,0.21,WeatherDisplay:10.37,2013-05-07 22:55:00,
2013-05-07 19:00:00,64.0,61.3,29.99,East,94,4.5,6.0,91,0.00,BKN,,0.21,WeatherDisplay:10.37,2013-05-07 23:00:00,
2013-05-07 19:05:00,64.0,61.3,29.99,East,93,4.9,5.8,91,0.00,BKN,,0.21,WeatherDisplay:10.37,2013-05-07 23:05:00,
2013-05-07 19:10:00,64.0,61.3,29.98,East,86,3.8,4.6,91,0.00,BKN,,0.21,WeatherDisplay:10.37,2013-05-07 23:10:00,
2013-05-07 19:15:00,63.9,61.2,29.98,ESE,107,4.2,4.6,91,0.00,BKN,,0.21,WeatherDisplay:10.37,2013-05-07 23:15:00,
2013-05-07 19:20:00,63.9,61.2,29.98,East,88,3.8,5.8,91,0.00,BKN,,0.21,WeatherDisplay:10.37,2013-05-07 23:20:00,
2013-05-07 19:25:00,63.9,61.5,29.98,East,89,3.7,4.6,92,0.01,RA,,0.22,WeatherDisplay:10.37,2013-05-07 23:25:00,
2013-05-07 19:30:00,63.7,61.3,29.98,ESE,104,4.5,6.9,92,0.01,RA,,0.22,WeatherDisplay:10.37,2013-05-07 23:30:00,
2013-05-07 19:35:00,63.5,61.1,29.98,East,96,5.1,6.9,92,0.01,OVC,,0.22,WeatherDisplay:10.37,2013-05-07 23:35:00,
2013-05-07 19:40:00,63.5,61.1,29.98,East,98,6.0,8.1,92,0.01,OVC,,0.22,WeatherDisplay:10.37,2013-05-07 23:40:00,
2013-05-07 19:45:00,63.5,61.1,29.98,ESE,107,5.6,6.9,92,0.01,OVC,,0.22,WeatherDisplay:10.37,2013-05-07 23:45:00,
2013-05-07 19:50:00,63.5,61.1,29.98,ESE,105,5.2,6.9,92,0.01,OVC,,0.22,WeatherDisplay:10.37,2013-05-07 23:50:00,
2013-05-07 19:55:00,63.5,61.1,29.99,ESE,103,4.5,6.0,92,0.01,OVC,,0.22,WeatherDisplay:10.37,2013-05-07 23:55:00,
2013-05-07 20:00:00,63.4,61.0,29.98,ESE,103,4.6,6.9,92,0.01,OVC,,0.22,WeatherDisplay:10.37,2013-05-08 00:00:00,
2013-05-07 20:05:00,63.4,61.0,29.98,East,100,4.6,6.9,92,0.01,OVC,,0.22,WeatherDisplay:10.37,2013-05-08 00:05:00,
2013-05-07 20:10:00,63.4,61.0,29.98,ESE,102,3.9,4.6,92,0.01,OVC,,0.22,WeatherDisplay:10.37,2013-05-08 00:10:00,
2013-05-07 20:15:00,63.4,61.0,29.98,ESE,102,4.3,5.0,92,0.01,OVC,,0.22,WeatherDisplay:10.37,2013-05-08 00:15:00,
2013-05-07 20:20:00,63.2,60.8,29.98,ESE,102,4.5,5.0,92,0.01,OVC,,0.22,WeatherDisplay:10.37,2013-05-08 00:20:00,
2013-05-07 20:25:00,63.2,60.8,29.98,ESE,105,5.5,9.2,92,0.00,OVC,,0.22,WeatherDisplay:10.37,2013-05-08 00:25:00,
2013-05-07 20:30:00,63.4,61.0,29.99,East,95,5.5,6.9,92,0.00,OVC,,0.22,WeatherDisplay:10.37,2013-05-08 00:30:00,
2013-05-07 20:35:00,63.4,61.0,29.99,ESE,111,5.7,9.0,92,0.00,OVC,,0.22,WeatherDisplay:10.37,2013-05-08 00:35:00,
2013-05-07 20:40:00,63.4,61.0,30.00,ESE,108,5.7,6.9,92,0.00,OVC,,0.22,WeatherDisplay:10.37,2013-05-08 00:40:00,
2013-05-07 20:45:00,63.4,61.0,30.00,ESE,115,8.7,11.5,92,0.00,OVC,,0.22,WeatherDisplay:10.37,2013-05-08 00:45:00,
2013-05-07 20:50:00,63.2,60.8,30.00,East,98,5.2,6.0,92,0.00,OVC,,0.22,WeatherDisplay:10.37,2013-05-08 00:50:00,
2013-05-07 20:55:00,63.1,60.4,30.00,East,98,6.5,9.2,91,0.00,OVC,,0.22,WeatherDisplay:10.37,2013-05-08 00:55:00,
2013-05-07 21:00:00,63.1,60.4,30.00,ESE,111,8.9,11.5,91,0.00,OVC,,0.22,WeatherDisplay:10.37,2013-05-08 01:00:00,
2013-05-07 21:05:00,62.9,60.5,30.00,East,97,6.7,16.0,92,0.00,OVC,,0.22,WeatherDisplay:10.37,2013-05-08 01:05:00,
2013-05-07 21:10:00,62.6,60.2,30.00,East,96,8.8,16.0,92,0.00,OVC,,0.22,WeatherDisplay:10.37,2013-05-08 01:10:00,
2013-05-07 21:15:00,62.6,60.2,30.00,ESE,108,9.3,12.7,92,0.00,OVC,,0.22,WeatherDisplay:10.37,2013-05-08 01:15:00,
2013-05-07 21:20:00,62.4,60.0,30.00,ESE,119,6.5,16.0,92,0.00,OVC,,0.22,WeatherDisplay:10.37,2013-05-08 01:20:00,
2013-05-07 21:25:00,62.4,59.7,30.00,East,99,6.3,9.2,91,0.00,OVC,,0.22,WeatherDisplay:10.37,2013-05-08 01:25:00,
2013-05-07 21:30:00,62.3,59.6,30.00,ESE,105,5.6,6.9,91,0.00,OVC,,0.22,WeatherDisplay:10.37,2013-05-08 01:30:00,
2013-05-07 21:35:00,62.3,59.6,30.00,ESE,108,9.0,9.2,91,0.00,OVC,,0.22,WeatherDisplay:10.37,2013-05-08 01:35:00,
2013-05-07 21:40:00,62.1,59.4,30.01,ESE,115,5.9,11.5,91,0.00,OVC,,0.22,WeatherDisplay:10.37,2013-05-08 01:40:00,
2013-05-07 21:45:00,62.1,59.1,30.01,ESE,105,11.3,12.0,90,0.00,OVC,,0.22,WeatherDisplay:10.37,2013-05-08 01:45:00,
2013-05-07 21:50:00,62.1,59.1,30.01,ESE,119,9.2,10.4,90,0.00,OVC,,0.22,WeatherDisplay:10.37,2013-05-08 01:50:00,
2013-05-07 21:55:00,62.0,59.0,30.01,ESE,105,5.1,11.5,90,0.00,BKN,,0.22,WeatherDisplay:10.37,2013-05-08 01:55:00,
2013-05-07 22:00:00,62.0,59.0,30.01,East,96,4.8,8.1,90,0.00,BKN,,0.22,WeatherDisplay:10.37,2013-05-08 02:00:00,
2013-05-07 22:05:00,61.8,58.8,30.02,ESE,110,10.0,11.5,90,0.00,BKN,,0.22,WeatherDisplay:10.37,2013-05-08 02:05:00,
2013-05-07 22:10:00,61.8,58.5,30.01,ESE,109,6.5,11.5,89,0.00,BKN,,0.22,WeatherDisplay:10.37,2013-05-08 02:10:00,
2013-05-07 22:15:00,61.8,58.5,30.01,East,90,5.3,6.9,89,0.00,BKN,,0.22,WeatherDisplay:10.37,2013-05-08 02:15:00,
2013-05-07 22:20:00,61.6,58.3,30.01,East,94,6.2,8.0,89,0.00,BKN,,0.22,WeatherDisplay:10.37,2013-05-08 02:20:00,
2013-05-07 22:25:00,61.6,58.3,30.01,ESE,111,6.0,8.1,89,0.00,BKN,,0.22,WeatherDisplay:10.37,2013-05-08 02:25:00,
2013-05-07 22:30:00,61.6,58.3,30.01,ESE,105,5.4,11.5,89,0.00,BKN,,0.22,WeatherDisplay:10.37,2013-05-08 02:30:00,
2013-05-07 22:35:00,61.3,58.0,30.00,East,98,5.6,5.8,89,0.00,OVC,,0.22,WeatherDisplay:10.37,2013-05-08 02:35:00,
2013-05-07 22:40:00,61.2,58.2,30.00,East,95,5.6,6.9,90,0.00,OVC,,0.22,WeatherDisplay:10.37,2013-05-08 02:40:00,
2013-05-07 22:45:00,61.2,58.2,30.00,ESE,108,5.4,8.1,90,0.00,OVC,,0.22,WeatherDisplay:10.37,2013-05-08 02:45:00,
2013-05-07 22:50:00,61.0,58.0,30.01,ESE,117,5.8,8.0,90,0.00,OVC,,0.22,WeatherDisplay:10.37,2013-05-08 02:50:00,
2013-05-07 22:55:00,61.0,58.0,30.01,ESE,120,6.2,8.1,90,0.00,BKN,,0.22,WeatherDisplay:10.37,2013-05-08 02:55:00,
2013-05-07 23:00:00,61.0,58.0,30.01,ESE,110,7.8,10.4,90,0.00,BKN,,0.22,WeatherDisplay:10.37,2013-05-08 03:00:00,
2013-05-07 23:05:00,60.9,57.6,30.01,ESE,114,7.0,10.4,89,0.00,BKN,,0.22,WeatherDisplay:10.37,2013-05-08 03:05:00,
2013-05-07 23:10:00,60.9,57.6,30.01,ESE,105,6.3,10.4,89,0.00,BKN,,0.22,WeatherDisplay:10.37,2013-05-08 03:10:00,
2013-05-07 23:15:00,60.9,57.6,30.01,ESE,115,7.3,12.0,89,0.00,BKN,,0.22,WeatherDisplay:10.37,2013-05-08 03:15:00,
2013-05-07 23:20:00,60.7,57.4,30.01,East,81,5.3,6.9,89,0.00,BKN,,0.22,WeatherDisplay:10.37,2013-05-08 03:20:00,
2013-05-07 23:25:00,60.7,57.4,30.01,ESE,108,5.5,6.9,89,0.00,BKN,,0.22,WeatherDisplay:10.37,2013-05-08 03:25:00,
2013-05-07 23:30:00,60.5,57.2,30.01,ESE,104,5.7,10.4,89,0.00,BKN,,0.22,WeatherDisplay:10.37,2013-05-08 03:30:00,
2013-05-07 23:35:00,60.5,57.2,30.01,East,96,4.9,5.8,89,0.00,BKN,,0.22,WeatherDisplay:10.37,2013-05-08 03:35:00,
2013-05-07 23:40:00,60.4,57.1,30.01,East,97,4.5,5.8,89,0.00,BKN,,0.22,WeatherDisplay:10.37,2013-05-08 03:40:00,
2013-05-07 23:45:00,60.2,56.9,30.01,ESE,107,4.8,5.8,89,0.00,BKN,,0.22,WeatherDisplay:10.37,2013-05-08 03:45:00,
2013-05-07 23:51:00,60.2,56.9,30.01,East,96,3.5,4.6,89,0.00,SCT,,0.22,WeatherDisplay:10.37,2013-05-08 03:51:00,
2013-05-07 23:56:00,60.2,57.3,30.01,East,100,3.8,5.0,90,0.00,SCT,,0.22,WeatherDisplay:10.37,2013-05-08 03:56:00,